Flag for Germany Weather past 2 weeks in Dietzenbach, Hesse, Germany

Now
64 °F

Overcast.


Feels Like: 64 °F
Forecast: 49 / 72 °F
Wind: 6 mph from Northwest

Location: Frankfurt / M-Flughafen

Current Time: Jul 30, 2015 at 8:46:44 PM

Latest Report: Jul 30, 2015 at 8:00 PM


Visibility: 37 mi

Pressure: 30.02 "Hg

Humidity: 50%

Dew point: 45 °F

Location of DietzenbachLocation

Historic Weather in Dietzenbach — Graph

°F

Dietzenbach temperature yesterday

Maximum temperature yesterday: 72 °F (at 5:00 PM)
Minimum temperature yesterday: 58 °F (at 7:00 AM)
Average temperature yesterday: 63 °F

Past Weeks' High & Low Weather Summary

 TemperatureHumidityPressure
High95 °F (Jul 17, 6:00 PM)98% (Jul 18, 4:00 AM)30.09 "Hg (Jul 18, 4:00 AM)
Low47 °F (Jul 30, 4:00 AM)23% (Jul 17, 4:00 PM)29.63 "Hg (Jul 27, 8:00 AM)
Average72 °F59%29.89 "Hg
* Reported Jul 15 7:00 PM — Jul 30 7:00 PM, Dietzenbach, Weather by CustomWeather, © 2015

Note: Actual official high and low records may vary slightly from our data, if they occured in-between our weather recording intervals... More about our weather records

Advertising

Dietzenbach weather history for previous 24 hours

 ConditionsComfort  
Time TempWeatherWind HumidityBarometerVisibility
7:00 PM
Thu, Jul 30
65 °FPartly sunny.7 mph50%30.00 "Hg37 mi
6:00 PM67 °FPartly sunny.8 mph43%29.98 "Hg34 mi
4:00 PM70 °FPartly sunny.5 mph32%29.96 "Hg37 mi
3:00 PM71 °FPartly sunny.5 mph28%29.96 "Hg37 mi
2:00 PM69 °FPartly sunny.5 mph32%29.97 "Hg37 mi
1:00 PM68 °FScattered clouds.6 mph35%29.98 "Hg37 mi
10:00 AM62 °FPassing clouds.5 mph55%29.99 "Hg37 mi
9:00 AM58 °FPassing clouds.5 mph65%29.99 "Hg37 mi
8:00 AM53 °FPassing clouds.3 mph76%29.99 "Hg37 mi
7:00 AM48 °FPassing clouds.2 mph90%29.99 "Hg37 mi
4:00 AM47 °FPassing clouds.1 mph88%29.97 "Hg37 mi
3:00 AM52 °FPassing clouds.2 mph76%29.96 "Hg37 mi
2:00 AM51 °FClear.3 mph78%29.96 "Hg37 mi
1:00 AM52 °FClear.2 mph75%29.95 "Hg37 mi
10:00 PM
Wed, Jul 29
64 °FPassing clouds.5 mph41%29.90 "Hg37 mi
9:00 PM66 °FScattered clouds.6 mph36%29.88 "Hg37 mi
8:00 PM68 °FScattered clouds.8 mph35%29.85 "Hg37 mi
Weather by CustomWeather, © 2015

See weather overviewHow to use our weather pages